Weather History for KBPT - November, 2013

Change the Weather History Date:

Sunday, November 3, 2013

  Actual Average Record
Temperature  
Mean Temperature 58 °F 66 °F  
Max Temperature 66 °F 76 °F 88 °F (1978)
Min Temperature 49 °F 55 °F 29 °F (1951)
Degree Days  
Heating Degree Days 7 3  
Month to date heating degree days 9 9  
Since 1 July heating degree days 18 43  
Cooling Degree Days 0 3  
Month to date cooling degree days 4 11  
Year to date cooling degree days 2949 2802  
Growing Degree Days 8 (Base 50)    
Moisture  
Dew Point 44 °F    
Average Humidity 63    
Maximum Humidity 83    
Minimum Humidity 42    
Precipitation  
Precipitation 0.00 in 0.15 in 2.16 in (1934)
Month to date precipitation 0.26 0.44  
Year to date precipitation 51.39 51.22  
Snow  
Snow 0.00 in 0.00 in 0.00 in ()
Month to date snowfall 0.0 0.0  
Since 1 July snowfall 0.0 0.0  
Since 1 September snowfall 0.0 0.0  
Snow Depth 0.00 in    
Sea Level Pressure  
Sea Level Pressure 30.18 in    
Wind  
Wind Speed 6 mph (East)    
Max Wind Speed 16 mph    
Max Gust Speed 20 mph    
Visibility 10 miles    
Events      
T = Trace of Precipitation, MM = Missing Value Source: NWS Daily Summary

Daily Weather History Graph

Daily Weather History Graph

Search for Another Location

Airport or City:

Trip Planner

Search our weather history database for the weather conditions in past years. The results will help you decide how hot, cold, wet, or windy it might be!

Date:

Astronomy

Nov. 03, 2013 Rise Set
Actual Time 6:31 AM CST 5:27 PM CST
Civil Twilight 6:06 AM CST 5:52 PM CST
Nautical Twilight 5:38 AM CST 6:20 PM CST
Astronomical Twilight 5:10 AM CST 6:48 PM CST
Moon 6:35 AM CST (11/3) 5:45 PM CST (11/3)
Length of Visible Light 11h 45m
Length of Day
10h 55m
New Moon, 0% of the Moon is Illuminated
Nov 3
New Moon
Nov 9
First Quarter
Nov 17
Full
Nov 25
Last Quarter
Dec 2
New

Hourly Weather History & Observations

Time (CST) Temp. Dew Point Humidity Pressure Visibility Wind Dir Wind Speed Gust Speed Precip Events Conditions
12:53 AM 53.1 °F 42.1 °F 66% 30.19 in 10.0 mi NNE 8.1 mph - N/A   Clear
1:53 AM 53.1 °F 43.0 °F 69% 30.19 in 10.0 mi NNE 6.9 mph - N/A   Clear
1:53 AM 52.0 °F 44.1 °F 74% 30.19 in 10.0 mi NNE 5.8 mph - N/A   Clear
2:53 AM 52.0 °F 43.0 °F 71% 30.19 in 10.0 mi NNE 8.1 mph - N/A   Clear
3:53 AM 50.0 °F 44.1 °F 80% 30.19 in 10.0 mi NE 4.6 mph - N/A   Clear
4:53 AM 51.1 °F 44.1 °F 77% 30.19 in 10.0 mi ENE 6.9 mph - N/A   Clear
5:53 AM 50.0 °F 44.1 °F 80% 30.20 in 10.0 mi ENE 6.9 mph - N/A   Clear
6:53 AM 50.0 °F 45.0 °F 83% 30.21 in 10.0 mi ENE 4.6 mph - N/A   Clear
7:53 AM 55.9 °F 46.9 °F 72% 30.23 in 10.0 mi ENE 6.9 mph - N/A   Clear
8:53 AM 59.0 °F 45.0 °F 60% 30.25 in 10.0 mi East 12.7 mph - N/A   Clear
9:53 AM 62.1 °F 42.1 °F 48% 30.24 in 10.0 mi East 13.8 mph - N/A   Clear
10:53 AM 64.0 °F 44.1 °F 48% 30.22 in 10.0 mi ESE 13.8 mph - N/A   Clear
11:53 AM 64.9 °F 43.0 °F 45% 30.19 in 10.0 mi ESE 8.1 mph - N/A   Clear
12:53 PM 64.9 °F 42.1 °F 43% 30.15 in 10.0 mi ESE 9.2 mph 16.1 mph N/A   Clear
1:53 PM 66.0 °F 42.1 °F 42% 30.13 in 10.0 mi East 8.1 mph 17.3 mph N/A   Clear
2:53 PM 64.9 °F 41.0 °F 42% 30.12 in 10.0 mi ESE 9.2 mph - N/A   Clear
3:53 PM 64.9 °F 42.1 °F 43% 30.14 in 10.0 mi East 5.8 mph - N/A   Partly Cloudy
4:53 PM 62.1 °F 43.0 °F 50% 30.13 in 10.0 mi ESE 4.6 mph - N/A   Clear
5:53 PM 55.0 °F 43.0 °F 64% 30.14 in 10.0 mi ESE 5.8 mph - N/A   Clear
6:53 PM 54.0 °F 44.1 °F 69% 30.16 in 10.0 mi Calm Calm - N/A   Clear
7:53 PM 53.1 °F 45.0 °F 74% 30.16 in 10.0 mi Calm Calm - N/A   Clear
8:53 PM 53.1 °F 45.0 °F 74% 30.16 in 10.0 mi Calm Calm - N/A   Clear
9:53 PM 55.0 °F 48.0 °F 77% 30.14 in 10.0 mi East 5.8 mph - N/A   Clear
10:53 PM 53.1 °F 48.0 °F 83% 30.12 in 10.0 mi Calm Calm - N/A   Clear